| time (UTC) | temp F | wind direction | speed knots | gust knots | rain 1hr in | rain 24hr in | rain mn in | humidity % | barometer mb |
| 20260903183653 | 93 | 238 | 5.2 | 7.8 | 0.00 | 0.00 | 0.00 | 28 | 1018.4 |
| 20260903182709 | 92 | 193 | 3.5 | 7.8 | 0.00 | 0.00 | 0.00 | 28 | 1018.4 |
| 20260903181638 | 91 | 134 | 2.6 | 10.4 | 0.00 | 0.00 | 0.00 | 29 | 1018.8 |
| 20260903180650 | 91 | 242 | 1.7 | 4.3 | 0.00 | 0.00 | 0.00 | 29 | 1018.8 |
| 20260903174638 | 90 | 211 | 0.9 | 5.2 | 0.00 | 0.00 | 0.00 | 30 | 1019.3 |
| 20260903173648 | 89 | 254 | 0.0 | 3.5 | 0.00 | 0.00 | 0.00 | 31 | 1019.4 |
| 20260903172640 | 88 | 190 | 0.9 | 4.3 | 0.00 | 0.00 | 0.00 | 33 | 1019.4 |
| 20260903171646 | 86 | 229 | 0.9 | 3.5 | 0.00 | 0.00 | 0.00 | 36 | 1019.4 |
| 20260903170637 | 86 | 283 | 2.6 | 3.5 | 0.00 | 0.00 | 0.00 | 37 | 1019.4 |
| 20260903165651 | 85 | 275 | 0.9 | 4.3 | 0.00 | 0.00 | 0.00 | 39 | 1019.5 |
| 20260903164639 | 84 | 215 | 1.7 | 5.2 | 0.00 | 0.00 | 0.00 | 41 | 1019.5 |
| 20260903163649 | 83 | 224 | 2.6 | 6.1 | 0.00 | 0.00 | 0.00 | 42 | 1019.6 |
| 20260903162650 | 83 | 238 | 0.0 | 4.3 | 0.00 | 0.00 | 0.00 | 42 | 1019.6 |
| 20260903161642 | 83 | 236 | 3.5 | 6.1 | 0.00 | 0.00 | 0.00 | 43 | 1019.5 |
| 20260903160636 | 83 | 243 | 2.6 | 7.0 | 0.00 | 0.00 | 0.00 | 44 | 1019.5 |
| 20260903155654 | 82 | 184 | 2.6 | 6.1 | 0.00 | 0.00 | 0.00 | 45 | 1019.4 |
| 20260903154647 | 82 | 262 | 5.2 | 7.0 | 0.00 | 0.00 | 0.00 | 46 | 1019.5 |
| 20260903153654 | 82 | 186 | 4.3 | 7.8 | 0.00 | 0.00 | 0.00 | 46 | 1019.6 |
| 20260903152645 | 82 | 269 | 5.2 | 9.6 | 0.00 | 0.00 | 0.00 | 46 | 1019.7 |
| 20260903150654 | 80 | 229 | 3.5 | 7.0 | 0.00 | 0.00 | 0.00 | 48 | 1019.7 |
| 20260903145646 | 79 | 194 | 3.5 | 7.8 | 0.00 | 0.00 | 0.00 | 49 | 1019.7 |
| 20260903143638 | 77 | 184 | 3.5 | 7.0 | 0.00 | 0.00 | 0.00 | 53 | 1019.7 |
| 20260903142637 | 76 | 221 | 2.6 | 7.0 | 0.00 | 0.00 | 0.00 | 54 | 1019.7 |
| 20260903141648 | 76 | 186 | 2.6 | 5.2 | 0.00 | 0.00 | 0.00 | 53 | 1019.7 |
| 20260903140639 | 76 | 174 | 4.3 | 9.6 | 0.00 | 0.00 | 0.00 | 53 | 1019.7 |
| 20260903134634 | 75 | 198 | 3.5 | 7.0 | 0.00 | 0.00 | 0.00 | 55 | 1019.5 |
| 20260903133646 | 75 | 220 | 3.5 | 7.8 | 0.00 | 0.00 | 0.00 | 56 | 1019.4 |
| 20260903132639 | 75 | 171 | 3.5 | 6.1 | 0.00 | 0.00 | 0.00 | 56 | 1019.4 |
| 20260903130632 | 74 | 174 | 2.6 | 7.8 | 0.00 | 0.00 | 0.00 | 57 | 1019.2 |
| 20260903124640 | 74 | 138 | 4.3 | 8.7 | 0.00 | 0.00 | 0.00 | 57 | 1019.1 |
| 20260903123635 | 74 | 197 | 3.5 | 7.8 | 0.00 | 0.00 | 0.00 | 57 | 1019.1 |
| 20260903122647 | 74 | 198 | 5.2 | 9.6 | 0.00 | 0.00 | 0.00 | 57 | 1019.0 |
| 20260903121642 | 74 | 186 | 6.1 | 8.7 | 0.00 | 0.00 | 0.00 | 56 | 1018.8 |
| 20260903120636 | 75 | 192 | 5.2 | 8.7 | 0.00 | 0.00 | 0.00 | 56 | 1018.6 |
| 20260903114644 | 75 | 201 | 3.5 | 7.8 | 0.00 | 0.00 | 0.00 | 55 | 1018.1 |
| 20260903113635 | 75 | 160 | 3.5 | 5.2 | 0.00 | 0.00 | 0.00 | 55 | 1018.1 |
| 20260903112631 | 75 | 165 | 2.6 | 5.2 | 0.00 | 0.00 | 0.00 | 54 | 1017.9 |
| 20260903111740 | 75 | 178 | 1.7 | 6.1 | 0.00 | 0.00 | 0.00 | 54 | 1018.0 |
| 20260903110739 | 76 | 173 | 1.7 | 6.1 | 0.00 | 0.00 | 0.00 | 53 | 1017.8 |
| 20260903104736 | 76 | 115 | 2.6 | 6.1 | 0.00 | 0.00 | 0.00 | 51 | 1018.0 |
| 20260903103735 | 76 | 201 | 3.5 | 7.8 | 0.00 | 0.00 | 0.00 | 50 | 1018.2 |
| 20260903102731 | 77 | 185 | 4.3 | 8.7 | 0.00 | 0.00 | 0.00 | 48 | 1018.2 |
| 20260903101745 | 77 | 200 | 2.6 | 7.0 | 0.00 | 0.00 | 0.00 | 49 | 1018.3 |
| 20260903100740 | 77 | 238 | 3.5 | 7.0 | 0.00 | 0.00 | 0.00 | 48 | 1018.3 |
| 20260903095749 | 77 | 208 | 3.5 | 10.4 | 0.00 | 0.00 | 0.00 | 47 | 1018.4 |
| 20260903094744 | 77 | 184 | 5.2 | 8.7 | 0.00 | 0.00 | 0.00 | 45 | 1018.5 |
| 20260903093739 | 77 | 159 | 2.6 | 5.2 | 0.00 | 0.00 | 0.00 | 44 | 1018.4 |
| 20260903091742 | 77 | 177 | 3.5 | 7.8 | 0.00 | 0.00 | 0.00 | 43 | 1018.3 |
| 20260903090741 | 78 | 225 | 3.5 | 7.0 | 0.00 | 0.00 | 0.00 | 42 | 1018.4 |
| 20260903085731 | 78 | 186 | 2.6 | 6.1 | 0.00 | 0.00 | 0.00 | 40 | 1018.5 |
| 20260903083747 | 80 | 164 | 2.6 | 7.8 | 0.00 | 0.00 | 0.00 | 38 | 1018.1 |
| 20260903082743 | 80 | 182 | 3.5 | 6.1 | 0.00 | 0.00 | 0.00 | 38 | 1018.2 |
| 20260903081735 | 80 | 217 | 1.7 | 4.3 | 0.00 | 0.00 | 0.00 | 37 | 1018.1 |
| 20260903080748 | 80 | 212 | 3.5 | 7.0 | 0.00 | 0.00 | 0.00 | 37 | 1018.1 |
| 20260903075732 | 80 | 205 | 5.2 | 8.7 | 0.00 | 0.00 | 0.00 | 37 | 1018.2 |
| 20260903074732 | 80 | 180 | 2.6 | 6.1 | 0.00 | 0.00 | 0.00 | 36 | 1018.3 |
| 20260903073745 | 80 | 170 | 3.5 | 5.2 | 0.00 | 0.00 | 0.00 | 35 | 1018.0 |
| 20260903072734 | 80 | 155 | 0.9 | 3.5 | 0.00 | 0.00 | 0.00 | 34 | 1018.0 |
| 20260903071733 | 81 | 155 | 1.7 | 4.3 | 0.00 | 0.00 | 0.00 | 34 | 1017.9 |
| 20260903065743 | 82 | 120 | 1.7 | 3.5 | 0.00 | 0.00 | 0.00 | 32 | 1018.0 |
| 20260903063736 | 82 | 86 | 1.7 | 5.2 | 0.00 | 0.00 | 0.00 | 33 | 1018.2 |
| 20260903062737 | 82 | 97 | 2.6 | 4.3 | 0.00 | 0.00 | 0.00 | 33 | 1018.1 |
| 20260903061730 | 83 | 76 | 2.6 | 4.3 | 0.00 | 0.00 | 0.00 | 32 | 1018.3 |
| 20260903060728 | 84 | 90 | 2.6 | 3.5 | 0.00 | 0.00 | 0.00 | 30 | 1018.2 |
| 20260903055738 | 84 | 131 | 0.9 | 2.6 | 0.00 | 0.00 | 0.00 | 30 | 1018.3 |
| 20260903053729 | 85 | 140 | 1.7 | 5.2 | 0.00 | 0.00 | 0.00 | 29 | 1017.6 |
| 20260903051740 | 85 | 138 | 2.6 | 7.0 | 0.00 | 0.00 | 0.00 | 29 | 1017.6 |
| 20260903050729 | 85 | 137 | 1.7 | 5.2 | 0.00 | 0.00 | 0.00 | 29 | 1017.7 |
| 20260903045729 | 85 | 137 | 4.3 | 6.1 | 0.00 | 0.00 | 0.00 | 29 | 1017.6 |
| 20260903043733 | 86 | 129 | 0.9 | 2.6 | 0.00 | 0.00 | 0.00 | 28 | 1017.6 |
| 20260903042728 | 86 | 142 | 1.7 | 6.1 | 0.00 | 0.00 | 0.00 | 28 | 1017.5 |
| 20260903041734 | 86 | 169 | 3.5 | 7.0 | 0.00 | 0.00 | 0.00 | 28 | 1017.6 |
| 20260903040744 | 87 | 101 | 1.7 | 2.6 | 0.00 | 0.00 | 0.00 | 28 | 1017.3 |
| 20260903035740 | 87 | 109 | 1.7 | 2.6 | 0.00 | 0.00 | 0.00 | 27 | 1017.4 |
| 20260903034737 | 87 | 107 | 1.7 | 2.6 | 0.00 | 0.00 | 0.00 | 27 | 1017.4 |
| 20260903033727 | 88 | 141 | 0.9 | 2.6 | 0.00 | 0.00 | 0.00 | 26 | 1017.3 |
| 20260903032737 | 88 | 150 | 1.7 | 1.7 | 0.00 | 0.00 | 0.00 | 26 | 1017.1 |
| 20260903031735 | 89 | 205 | 0.9 | 1.7 | 0.00 | 0.00 | 0.00 | 26 | 1017.0 |
| 20260903030725 | 89 | 206 | 0.0 | 1.7 | 0.00 | 0.00 | 0.00 | 26 | 1016.9 |
| 20260903025740 | 89 | 216 | 0.9 | 3.5 | 0.00 | 0.00 | 0.00 | 26 | 1016.7 |
| 20260903024735 | 89 | 221 | 1.7 | 3.5 | 0.00 | 0.00 | 0.00 | 25 | 1016.6 |
| 20260903023732 | 89 | 198 | 0.9 | 3.5 | 0.00 | 0.00 | 0.00 | 25 | 1016.5 |
| 20260903020734 | 90 | 256 | 2.6 | 7.0 | 0.00 | 0.00 | 0.00 | 25 | 1016.3 |
| 20260903015725 | 90 | 250 | 3.5 | 6.1 | 0.00 | 0.00 | 0.00 | 24 | 1016.1 |
| 20260903014731 | 91 | 251 | 1.7 | 4.3 | 0.00 | 0.00 | 0.00 | 24 | 1016.1 |
| 20260903013726 | 91 | 237 | 3.5 | 6.1 | 0.00 | 0.00 | 0.00 | 23 | 1016.1 |
| 20260903012737 | 91 | 167 | 1.7 | 3.5 | 0.00 | 0.00 | 0.00 | 23 | 1016.0 |
| 20260903011724 | 92 | 236 | 1.7 | 2.6 | 0.00 | 0.00 | 0.00 | 22 | 1016.0 |
| 20260903004726 | 93 | 227 | 3.5 | 7.0 | 0.00 | 0.00 | 0.00 | 22 | 1016.0 |
| 20260903002721 | 93 | 244 | 4.3 | 7.8 | 0.00 | 0.00 | 0.00 | 23 | 1016.2 |
| 20260903001735 | 94 | 223 | 4.3 | 7.8 | 0.00 | 0.00 | 0.00 | 23 | 1016.0 |
| 20260903000730 | 94 | 251 | 7.0 | 10.4 | 0.00 | 0.00 | 0.00 | 22 | 1016.0 |
| 20260902234720 | 94 | 209 | 2.6 | 10.4 | 0.00 | 0.00 | 0.00 | 23 | 1016.0 |
| 20260902233735 | 93 | 254 | 3.5 | 10.4 | 0.00 | 0.00 | 0.00 | 23 | 1016.2 |
| 20260902232729 | 94 | 286 | 5.2 | 9.6 | 0.00 | 0.00 | 0.00 | 23 | 1016.2 |
| 20260902231730 | 94 | 298 | 2.6 | 10.4 | 0.00 | 0.00 | 0.00 | 23 | 1016.4 |
| 20260902230725 | 94 | 196 | 5.2 | 12.2 | 0.00 | 0.00 | 0.00 | 23 | 1016.4 |
| 20260902225723 | 95 | 250 | 5.2 | 13.0 | 0.00 | 0.00 | 0.00 | 23 | 1016.5 |
| 20260902224734 | 95 | 244 | 7.0 | 13.9 | 0.00 | 0.00 | 0.00 | 22 | 1016.5 |
| 20260902223728 | 96 | 284 | 7.8 | 12.2 | 0.00 | 0.00 | 0.00 | 22 | 1016.7 |
| 20260902222735 | 96 | 219 | 2.6 | 8.7 | 0.00 | 0.00 | 0.00 | 22 | 1016.5 |
| 20260902221721 | 95 | 181 | 4.3 | 14.8 | 0.00 | 0.00 | 0.00 | 23 | 1016.8 |
| 20260902220727 | 94 | 266 | 5.2 | 8.7 | 0.00 | 0.00 | 0.00 | 23 | 1016.7 |
| 20260902215735 | 93 | 300 | 7.8 | 12.2 | 0.00 | 0.00 | 0.00 | 24 | 1017.0 |
| 20260902214729 | 94 | 273 | 3.5 | 10.4 | 0.00 | 0.00 | 0.00 | 24 | 1016.9 |
| 20260902213736 | 95 | 252 | 6.1 | 13.0 | 0.00 | 0.00 | 0.00 | 23 | 1017.3 |
| 20260902212726 | 95 | 293 | 5.2 | 9.6 | 0.00 | 0.00 | 0.00 | 22 | 1017.2 |
| 20260902211718 | 95 | 229 | 2.6 | 13.0 | 0.00 | 0.00 | 0.00 | 22 | 1017.5 |
| 20260902210723 | 96 | 202 | 2.6 | 7.8 | 0.00 | 0.00 | 0.00 | 22 | 1017.5 |
| 20260902205718 | 96 | 192 | 7.0 | 9.6 | 0.00 | 0.00 | 0.00 | 22 | 1017.8 |
| 20260902204732 | 96 | 184 | 5.2 | 9.6 | 0.00 | 0.00 | 0.00 | 22 | 1018.0 |
| 20260902202720 | 96 | 231 | 3.5 | 10.4 | 0.00 | 0.00 | 0.00 | 23 | 1018.5 |
| 20260902201731 | 95 | 207 | 4.3 | 9.6 | 0.00 | 0.00 | 0.00 | 23 | 1018.7 |
| 20260902200724 | 95 | 225 | 7.0 | 11.3 | 0.00 | 0.00 | 0.00 | 24 | 1018.8 |
| 20260902195718 | 95 | 236 | 4.3 | 13.0 | 0.00 | 0.00 | 0.00 | 23 | 1019.0 |
| 20260902194725 | 94 | 350 | 2.6 | 9.6 | 0.00 | 0.00 | 0.00 | 24 | 1019.0 |
| 20260902192724 | 93 | 329 | 0.9 | 9.6 | 0.00 | 0.00 | 0.00 | 24 | 1019.2 |
| 20260902191731 | 93 | 234 | 6.1 | 8.7 | 0.00 | 0.00 | 0.00 | 26 | 1019.5 |
| 20260902190722 | 92 | 213 | 4.3 | 9.6 | 0.00 | 0.00 | 0.00 | 26 | 1019.5 |
| 20260902185731 | 93 | 267 | 6.1 | 11.3 | 0.00 | 0.00 | 0.00 | 25 | 1019.7 |
| 20260902184722 | 93 | 246 | 5.2 | 8.7 | 0.00 | 0.00 | 0.00 | 26 | 1019.8 |